Yatton Keynell, United Kingdom

2:09 PM BST on April 22, 2019 (GMT +0100)
Yatton Keynell

Weather History for 03740 - July, 2004

Change the Weather History Date:

Saturday, July 31, 2004

  Actual Average Record
Temperature  
Mean Temperature 65 °F -  
Max Temperature 75 °F 68 °F - ()
Min Temperature 55 °F 53 °F - ()
Growing Degree Days 15 (Base 50)    
Moisture  
Dew Point 53 °F    
Average Humidity 67    
Maximum Humidity 94    
Minimum Humidity 22    
Precipitation  
Precipitation 0.00 in 0.08 in - ()
Sea Level Pressure  
Sea Level Pressure 30.16 in    
Wind  
Wind Speed 3 mph ()    
Max Wind Speed 8 mph    
Max Gust Speed -    
Visibility 7.9 miles    
Events      
T = Trace of Precipitation, MM = Missing Value Source: Averaged Metar Reports

Daily Weather History Graph

Daily Weather History Graph

Search for Another Location

Airport or City:

Astronomy

Jul. 31, 2004 Rise Set
Actual Time 5:30 AM BST 8:57 PM BST
Civil Twilight 4:49 AM BST 9:37 PM BST
Nautical Twilight 3:54 AM BST 10:32 PM BST
Astronomical Twilight 2:36 AM BST 11:48 PM BST
Moon 9:32 PM BST (7/31) 4:17 AM BST (7/31)
Length of Visible Light 16h 47m
Length of Day
15h 26m
Full, 100% of the Moon is Illuminated
Jul 31
Full
Jul 31
Full
Aug 7
Last Quarter
Aug 16
New
Aug 23
First Quarter

Hourly Weather History & Observations

Time (BST) Temp. Dew Point Humidity Pressure Visibility Wind Dir Wind Speed Gust Speed Precip Events Conditions
12:50 AM 58 °F 54 °F 84% 30.16 in 14 mi SW 4.6 mph - -   Scattered Clouds
12:50 AM 59.0 °F 55.4 °F 88% 30.15 in - SW 4.6 mph - N/A   Clear
1:50 AM 57.2 °F 53.6 °F 88% 30.15 in - West 4.6 mph - N/A   Clear
2:50 AM 57.2 °F 55.4 °F 94% 30.15 in - WSW 2.3 mph - N/A   Clear
3:50 AM 57 °F 55 °F 89% 30.16 in 7 mi West 1.2 mph - -   Mostly Cloudy
3:50 AM 57.2 °F 55.4 °F 94% 30.15 in - West 1.2 mph - N/A   Clear
4:50 AM 57.2 °F 55.4 °F 94% 30.12 in - SW 1.2 mph - N/A   Clear
5:50 AM 57.2 °F 53.6 °F 88% 30.15 in - SSW 2.3 mph - N/A   Clear
6:50 AM 57 °F 55 °F 89% 30.17 in 6 mi SW 4.6 mph - -   Haze
6:50 AM 57.2 °F 55.4 °F 94% 30.15 in 5.6 mi SW 4.6 mph - N/A   Haze
7:50 AM 59.0 °F 55.4 °F 88% 30.15 in 5.0 mi Calm Calm - N/A   Haze
8:50 AM 60.8 °F 57.2 °F 88% 30.18 in 5.0 mi WNW 2.3 mph - N/A   Haze
9:50 AM 65 °F 58 °F 73% 30.18 in 6 mi WSW 2.3 mph - -   Scattered Clouds
9:50 AM 64.4 °F 59.0 °F 83% 30.18 in 6.2 mi WSW 2.3 mph - N/A   Mostly Cloudy
10:50 AM 68.0 °F 57.2 °F 68% 30.15 in 6.2 mi SW 2.3 mph - N/A   Mostly Cloudy
11:50 AM 69.8 °F 55.4 °F 60% 30.15 in 6.2 mi WSW 4.6 mph - N/A   Scattered Clouds
12:50 PM 72 °F 56 °F 47% 30.16 in 16 mi West 2.3 mph - -   Scattered Clouds
12:50 PM 71.6 °F 55.4 °F 57% 30.15 in 6.2 mi West 2.3 mph - N/A   Scattered Clouds
1:50 PM 73.4 °F 55.4 °F 53% 30.15 in 6.2 mi WSW 3.5 mph - N/A   Partly Cloudy
2:50 PM 73.4 °F 50.0 °F 44% 30.15 in 6.2 mi WNW 3.5 mph - N/A   Partly Cloudy
3:50 PM 75 °F 54 °F 37% 30.14 in 16 mi NW 5.8 mph - -   Scattered Clouds
3:50 PM 75.2 °F 53.6 °F 47% 30.15 in - NW 5.8 mph - N/A   Clear
4:50 PM 75.2 °F 53.6 °F 47% 30.15 in - WNW 4.6 mph - N/A   Clear
5:50 PM 75.2 °F 46.4 °F 36% 30.15 in - West 8.1 mph - N/A   Clear
6:50 PM 74 °F 43 °F 22% 30.14 in 31 mi West 5.8 mph - -   Scattered Clouds
6:50 PM 73.4 °F 42.8 °F 33% 30.15 in - West 5.8 mph - N/A   Clear
7:50 PM 69.8 °F 50.0 °F 49% 30.15 in - West 5.8 mph - N/A   Clear
8:50 PM 66.2 °F 50.0 °F 56% 30.15 in - WNW 5.8 mph - N/A   Clear
9:50 PM 64 °F 52 °F 57% 30.18 in 25 mi NW 5.8 mph - -   Scattered Clouds
9:50 PM 64.4 °F 51.8 °F 64% 30.18 in - NW 5.8 mph - N/A   Clear
10:50 PM 64.4 °F 53.6 °F 68% 30.18 in - North 5.8 mph - N/A   Clear
11:50 PM 62.6 °F 53.6 °F 72% 30.18 in - NE 4.6 mph - N/A   Clear